Total_Precipitation_Accumulation
1.75 1.87 1.87 1.88 1.95 1.98 1.86 1.69 1.63 1.60 1.63 1.70 1.86 1.93 1.87 1.86 1.98 2.03 1.98 2.22 2.32 2.30 2.27 2.27 2.22 2.27 2.27 2.17 2.23 2.37 2.56 2.61 2.31 1.89 1.80 1.79 1.75 1.61 1.54 1.44 1.32 1.25 1.08
1.63 1.82 1.92 1.93 1.96 1.92 1.74 1.60 1.59 1.61 1.68 1.74 1.84 1.86 1.76 1.77 1.91 1.94 1.99 2.19 2.27 2.16 2.11 2.10 1.93 1.97 2.00 1.89 1.99 2.07 2.17 2.36 2.32 2.07 2.04 2.05 2.01 1.88 1.82 1.75 1.57 1.35 1.12
1.57 1.91 2.07 2.07 2.00 1.92 1.74 1.55 1.51 1.55 1.65 1.71 1.71 1.72 1.76 1.87 1.95 1.94 1.93 1.91 1.89 1.94 2.11 2.16 1.94 1.93 1.83 1.81 1.83 1.80 1.87 2.00 2.15 2.09 2.05 2.10 2.05 2.02 1.93 1.74 1.63 1.49 1.20
1.45 1.65 1.76 1.68 1.64 1.65 1.58 1.49 1.44 1.46 1.54 1.61 1.67 1.75 1.81 1.87 1.90 1.94 1.96 1.89 1.85 1.86 1.96 1.99 1.92 1.87 1.79 1.87 1.81 1.78 1.80 1.91 2.03 2.05 2.02 2.14 2.15 2.07 2.06 1.87 1.85 1.71 1.52
1.16 1.28 1.42 1.42 1.40 1.39 1.45 1.49 1.51 1.59 1.59 1.64 1.70 1.73 1.72 1.72 1.63 1.63 1.68 1.68 1.78 1.75 1.66 1.66 1.64 1.70 1.69 1.68 1.54 1.65 1.79 1.86 1.90 1.92 1.95 2.11 2.28 2.31 2.12 2.02 2.07 2.00 1.82
1.04 1.15 1.35 1.48 1.51 1.49 1.52 1.60 1.64 1.62 1.62 1.64 1.63 1.70 1.69 1.46 1.58 1.56 1.53 1.65 1.74 1.73 1.64 1.55 1.47 1.45 1.40 1.37 1.33 1.38 1.57 1.72 1.78 1.86 1.87 1.98 2.18 2.37 2.42 2.36 2.24 2.14 2.09
1.16 1.30 1.49 1.58 1.66 1.67 1.61 1.70 1.65 1.65 1.70 1.68 1.63 1.62 1.65 1.70 1.70 1.52 1.39 1.40 1.51 1.55 1.52 1.50 1.34 1.25 1.36 1.32 1.33 1.30 1.31 1.43 1.53 1.67 1.76 1.76 1.91 2.14 2.37 2.32 2.37 2.38 2.35
1.38 1.57 1.69 1.78 1.74 1.71 1.70 1.73 1.79 1.87 1.89 1.86 1.80 1.71 1.72 1.71 1.63 1.43 1.40 1.36 1.41 1.44 1.46 1.48 1.46 1.39 1.40 1.48 1.48 1.42 1.31 1.27 1.31 1.35 1.45 1.56 1.76 2.01 2.26 2.24 2.24 2.32 2.35
1.47 1.61 1.78 1.87 1.89 1.91 1.93 1.87 1.92 2.00 1.96 1.91 1.88 1.91 1.86 1.88 1.89 1.69 1.65 1.54 1.56 1.59 1.60 1.59 1.57 1.50 1.58 1.51 1.45 1.43 1.38 1.36 1.35 1.38 1.36 1.48 1.68 1.78 1.93 2.01 2.00 2.04 1.98
1.51 1.62 1.79 2.00 2.05 2.09 2.20 2.25 2.18 2.12 2.02 2.07 2.09 2.07 2.07 2.11 2.29 2.06 1.88 1.73 1.76 1.77 1.84 1.80 1.77 1.63 1.62 1.52 1.41 1.44 1.44 1.44 1.47 1.42 1.36 1.35 1.40 1.58 1.74 1.77 1.90 2.02 1.90
1.52 1.65 1.84 2.01 2.11 2.16 2.30 2.39 2.37 2.34 2.32 2.27 2.20 2.22 2.22 2.24 2.38 2.12 1.92 1.81 1.88 1.97 1.94 1.85 1.87 1.83 1.64 1.61 1.53 1.48 1.47 1.44 1.45 1.45 1.42 1.41 1.44 1.52 1.60 1.68 1.87 2.04 2.03
1.44 1.54 1.67 1.84 1.89 1.97 2.20 2.31 2.38 2.41 2.37 2.28 2.21 2.10 2.13 2.13 2.07 1.95 1.83 1.75 1.83 1.95 2.01 1.92 1.87 1.79 1.55 1.47 1.35 1.33 1.32 1.21 1.17 1.29 1.32 1.35 1.36 1.35 1.39 1.55 1.72 1.80 1.85
1.49 1.62 1.74 1.83 1.89 2.01 2.10 2.12 2.19 2.26 2.22 2.13 2.12 2.05 2.02 2.04 2.01 1.77 1.54 1.48 1.50 1.56 1.73 1.82 1.69 1.55 1.34 1.17 1.13 1.09 0.99 0.89 0.94 1.02 1.03 1.03 1.04 1.11 1.23 1.38 1.54 1.60 1.56
1.57 1.62 1.68 1.80 1.83 1.86 1.97 2.06 2.16 2.26 2.34 2.25 2.15 2.05 2.02 1.96 1.83 1.65 1.46 1.37 1.42 1.49 1.58 1.64 1.49 1.36 1.18 1.07 1.00 0.91 0.86 0.90 0.94 0.97 0.99 1.02 1.07 1.13 1.17 1.23 1.33 1.42 1.44
1.45 1.50 1.55 1.57 1.65 1.73 1.77 1.85 1.87 1.96 1.97 1.96 1.91 1.88 1.87 1.81 1.64 1.55 1.42 1.31 1.37 1.47 1.52 1.56 1.45 1.39 1.31 1.22 1.14 1.07 1.05 1.06 1.01 0.99 1.05 1.06 1.06 1.11 1.12 1.14 1.27 1.29 1.24
1.52 1.54 1.47 1.43 1.48 1.53 1.56 1.55 1.54 1.47 1.46 1.42 1.42 1.43 1.42 1.36 1.26 1.15 1.11 1.10 1.15 1.29 1.34 1.49 1.55 1.51 1.46 1.39 1.27 1.16 1.11 1.08 1.03 1.04 1.08 1.09 1.09 1.11 1.16 1.15 1.21 1.24 1.17
1.40 1.44 1.41 1.39 1.45 1.44 1.45 1.48 1.51 1.43 1.32 1.24 1.21 1.20 1.22 1.19 1.14 1.11 1.12 1.16 1.14 1.20 1.24 1.39 1.46 1.40 1.37 1.31 1.19 1.08 1.03 1.05 1.12 1.13 1.15 1.14 1.18 1.21 1.26 1.23 1.20 1.24 1.20
1.21 1.26 1.33 1.41 1.46 1.51 1.54 1.57 1.64 1.71 1.64 1.46 1.29 1.20 1.13 1.07 1.01 1.01 1.05 1.05 1.03 1.05 1.15 1.27 1.29 1.23 1.20 1.16 1.13 1.06 1.05 1.10 1.20 1.19 1.18 1.18 1.20 1.22 1.25 1.26 1.22 1.20 1.19
1.13 1.15 1.16 1.23 1.30 1.36 1.37 1.41 1.49 1.58 1.61 1.51 1.36 1.22 1.10 1.02 0.95 0.92 0.91 0.88 0.93 1.03 1.16 1.19 1.21 1.21 1.13 1.09 1.08 1.03 1.01 1.03 1.12 1.17 1.16 1.17 1.18 1.20 1.20 1.19 1.23 1.22 1.13
1.10 1.11 1.09 1.09 1.09 1.09 1.11 1.16 1.24 1.33 1.38 1.32 1.22 1.10 0.98 0.92 0.82 0.77 0.73 0.74 0.82 0.89 0.98 1.03 1.06 1.03 0.96 0.97 0.99 0.96 0.94 1.00 1.10 1.14 1.11 1.14 1.20 1.20 1.12 1.10 1.12 1.15 1.08
1.09 1.05 1.02 1.00 0.98 0.98 1.00 1.04 1.08 1.11 1.15 1.10 1.02 0.88 0.79 0.72 0.65 0.60 0.62 0.68 0.77 0.86 0.93 0.97 0.96 0.91 0.89 0.92 0.96 0.98 0.95 1.00 1.08 1.09 1.10 1.14 1.19 1.19 1.13 1.09 1.07 1.09 1.10
1.03 0.93 0.87 0.85 0.89 0.93 0.95 1.00 1.04 1.03 1.00 0.94 0.87 0.72 0.67 0.61 0.54 0.52 0.55 0.61 0.68 0.79 0.82 0.82 0.84 0.84 0.81 0.83 0.89 0.95 0.99 1.03 1.11 1.12 1.10 1.12 1.16 1.17 1.18 1.16 1.15 1.12 1.13
1.04 0.91 0.83 0.78 0.78 0.81 0.84 0.90 0.94 0.91 0.83 0.76 0.70 0.65 0.63 0.64 0.54 0.51 0.56 0.64 0.70 0.71 0.69 0.70 0.75 0.79 0.80 0.83 0.84 0.91 0.98 1.03 1.07 1.08 1.13 1.16 1.15 1.12 1.13 1.09 1.09 1.10 1.09
1.00 0.93 0.83 0.73 0.74 0.79 0.82 0.86 0.87 0.85 0.77 0.71 0.67 0.64 0.64 0.67 0.62 0.59 0.63 0.74 0.73 0.66 0.64 0.67 0.71 0.73 0.77 0.83 0.83 0.83 0.88 0.95 0.94 0.94 0.95 0.99 1.01 1.03 1.06 1.04 1.04 1.03 1.05
0.95 0.89 0.80 0.70 0.67 0.70 0.73 0.79 0.82 0.82 0.77 0.69 0.67 0.68 0.70 0.73 0.69 0.67 0.68 0.69 0.66 0.62 0.58 0.63 0.68 0.69 0.72 0.75 0.77 0.78 0.78 0.76 0.76 0.80 0.83 0.88 0.93 1.01 1.06 1.06 1.05 1.04 1.03
0.85 0.79 0.72 0.65 0.58 0.59 0.65 0.72 0.73 0.72 0.69 0.65 0.64 0.65 0.64 0.64 0.62 0.57 0.54 0.54 0.53 0.53 0.54 0.59 0.65 0.66 0.70 0.71 0.65 0.62 0.60 0.56 0.59 0.67 0.70 0.76 0.87 0.95 1.00 1.05 1.03 1.04 1.02